INTELSAT 907 (IS-907)   
1 27683U 03007A   19266.14563351 -.00000212  00000-0  00000+0 0  9993
2 27683   0.0164 246.8026 0002372 294.7053 205.1490  1.00272292 60733
ARIANE 44L R/B          
1 27684U 03007B   19265.46801266  .00008345  00000-0  71174-3 0  9996
2 27684   6.5555 100.5651 6296427  28.8819 354.8359  3.64323714167975